Pagina principale
METAR-TAF:

METAR-TAF

Aeroporti :

Contea di Ocean, New Jersey, Stati Uniti

latitudine: 39-55-39N, longitudine: 074-17-33W, altezza: 25 m

Osservazione

Il bollettino è stato emesso 26 minuti fa, alle 07:56 UTC
Vento 4 kt da ovest/sud-ovest
Temperature 22°C
Umidità 94%
Pressione 1017 hPa
Visibilità: 16.1 km
Cielo sereno

METAR: KMJX 160756Z AUTO 25004KT 10SM CLR 22/21 A3002 RMK AO2 SLP170 T02170206

Ora: 04:22 (08:22 UTC)


TAF: mancante

Osservazioni e previsioni meteorologiche di più di 4000 aeroporti (messaggi METAR e TAF).

Le stazioni disponibili sono rappresentate dai dischi gialli e rossi sulla carta.

Puntare il mouse per vedere il nome della stazione.

Clicca sopra per visualizzare le osservazioni e previsioni meteorologiche.

Per cambiare la mappa : fare clic sui pulsanti verdi con una croce nera per ingrandire, il pulsante verde con un trattino per diminuire, o sulla freccia verde per le mappe adiacenti.


METAR-TAF: